Regional Weather Roundup
Issued by NWS

Home | Current Version | Previous Version | Graphics & Text | Print | Product List | Glossary On
Versions: 1 2 3 4 5 6 7 8 9 10 11 12 13 14 15 16 17 18 19 20 21 22 23 24 25 26 27 28 29 30 31 32 33 34 35 36 37 38 39 40 41 42 43 44 45 46 47 48 49 50
000
ASUS43 KMKX 041100
RWRWI

WISCONSIN REGIONAL WEATHER ROUNDUP
NATIONAL WEATHER SERVICE MILWAUKEE/SULLIVAN WI
600 AM CDT FRI SEP 04 2015

NOTE: "FAIR" INDICATES FEW OR NO CLOUDS BELOW 12,000 FEET WITH NO
SIGNIFICANT WEATHER AND/OR OBSTRUCTIONS TO VISIBILITY.

WIZ001-002-006>008-014>016-023>028-041200-
NORTHWEST WISCONSIN

CITY           SKY/WX    TMP DP  RH WIND       PRES   REMARKS
SUPERIOR ARPT  CLOUDY    58  58  99 NE6       30.00R
ASHLAND        FOG       50  50 100 CALM      30.01S VSB 1/2
HAYWARD        CLOUDY    67  61  81 VRB5      30.01R
SIREN          CLEAR     69  64  85 SE8G16    29.96S
CUMBERLAND     CLOUDY    66  63  88 E7        29.99S
RICE LAKE      CLOUDY    68  64  86 SE7       30.01S
CHETEK         CLOUDY    67  65  94 MISG      30.00S
LADYSMITH      PTCLDY    63  61  94 E3        30.04R
EAU CLAIRE     NOT AVBL
MENOMONIE      PTCLDY    68  66  91 E5        29.98S
NEW RICHMOND   CLEAR     68  63  83 SE6       29.96R
OSCEOLA        CLEAR     69  64  84 SE9       29.97S
$$

WIZ003>005-009-010-017-018-041200-
NORTH CENTRAL WISCONSIN

CITY           SKY/WX    TMP DP  RH WIND       PRES   REMARKS
MANITOWISH WTR FOG       57  57 100 CALM      30.05S VSB 3/4
ARBOR VITAE    CLEAR     57  56  97 CALM      30.05S
WOODRUFF       CLEAR     57  56  97 CALM      30.05S
RHINELANDER    PTCLDY    58  57  97 CALM      30.06S FOG
EAGLE RIVER    FOG       54  54 100 CALM      30.06R VSB 1/2
LAND O LAKES     N/A     53  53 100 CALM      30.07R FOG
PHILLIPS       FOG       58  58 100 CALM      30.04R VSB 1
TOMAHAWK       FOG       52  51  98 CALM      30.05S VSB<1/4
MEDFORD        PTCLDY    60  60  98 CALM      30.03F
MERRILL        FOG       52  52 100 CALM      30.05S VSB 1
$$

WIZ029-030-035-036-043>047-041200-
CENTRAL WISCONSIN

CITY           SKY/WX    TMP DP  RH WIND       PRES   REMARKS
WAUSAU         CLEAR     60  59  96 CALM      30.03R
MOSINEE        CLEAR     59  59 100 E6        30.04R FOG
MARSHFIELD     PTCLDY    63  60  90 SE3       30.03R FOG
STEVENS POINT  PTCLDY    57  57 100 CALM      30.03R FOG
WAUPACA        CLOUDY    65  65  97 CALM      30.02R FOG
WAUTOMA        CLOUDY    64  64 100 CALM      30.03R FOG
WISC RAPIDS    PTCLDY    64  61  90 CALM      30.03S
CAMP DOUGLAS   MOCLDY    68  68 100 E6        30.00S
$$

WIZ011>013-019>022-031-037>040-048>050-041200-
NORTHEAST WISCONSIN

CITY           SKY/WX    TMP DP  RH WIND       PRES   REMARKS
ANTIGO         CLEAR     56  56 100 N3        30.05S FOG
SHAWANO        NOT AVBL
OCONTO         CLEAR     62  62 100 CALM      30.00S
STURGEON BAY   MOCLDY    63  59  88 N3        30.03R VSB 1
GREEN BAY      NOT AVBL
MANITOWOC      NOT AVBL
APPLETON       CLOUDY    64  64 100 N6        30.00R
CLINTONVILLE   CLOUDY    63  61  94 CALM      30.03R
OSHKOSH        CLOUDY    68  64  87 NE7       30.01R
$$

WIZ032>034-041-042-053>061-041200-
SOUTHWEST WISCONSIN

CITY           SKY/WX    TMP DP  RH WIND       PRES   REMARKS
LA CROSSE      CLEAR     69  65  86 SE5       29.97S
SPARTA         CLOUDY    69  64  84 CALM      29.99F
VIROQUA          N/A     66  66 100 E7        30.00S
BOSCOBEL       CLEAR     68  65  90 NE3       29.98S
PRAIRIE DU CHI MOCLDY    70  66  86 SE3       29.97R
PLATTEVILLE    PTCLDY    68  68  98 E9        29.98S
$$

WIZ056-057-062-063-064-067-068-041200-
SOUTH CENTRAL WISCONSIN

CITY           SKY/WX    TMP DP  RH WIND       PRES   REMARKS
REEDSBURG      MOCLDY    69  66  92 E3        29.99S
BARABOO/DELLS  CLOUDY    68  65  89 NE5       30.00S
LONE ROCK      NOT AVBL
MINERAL POINT  PTCLDY    70  66  88 E6        30.00S FOG
MADISON        MOCLDY    69  66  90 CALM      29.99S
MIDDLETON      PTCLDY    67  67  98 CALM      30.00S
WATERTOWN      MOCLDY    66  66 100 CALM      30.00R
MONROE           N/A     66  64  94 NE3       29.99S FOG
JANESVILLE     CLEAR     68  64  88 CALM      29.98S FOG
$$

WIZ051-052-058>065-066-070>072-041200-
SOUTHEAST WISCONSIN

CITY           SKY/WX    TMP DP  RH WIND       PRES   REMARKS
MILWAUKEE      PTCLDY    64  62  93 NE6       29.99R
WAUKESHA       PTCLDY    64  63  94 CALM      30.01R
MILWAUKEE/TIMM MOCLDY    63  59  88 N9        30.01R FOG
RACINE         CLEAR     65  62  90 N8        30.01R
BURLINGTON     PTCLDY    65  64  97 NW3       29.99S FOG
KENOSHA        CLEAR     65  64  97 N3        29.99R FOG
FOND DU LAC    CLOUDY    66  64  93 E5        30.02R
SHEBOYGAN      LGT RAIN  67  65  93 NW3       30.00R
WEST BEND      FOG       63  61  94 CALM      30.00S VSB 3/4
JUNEAU         LGT RAIN  63  63  99 NE6       30.02S VSB<1/4
$$

LSZ147-162-041200-
LAKE SUPERIOR

STATION/POSITION TIME  TEMP    WIND        PRES    WAVE
                       AIR SEA DIR/SP/G            HT/PER
                 (UTC) (F)     (DEG/KT/KT) (MB)    (FT/S)
W MID LAKE BUOY  0950   60 57  100/ 10/ 10 1016.3F   0
DEVILS ISLAND    1000   60     100/  2/  2 1016.4R
PORT WING        1000   53      40/  1/  2 1015.9F
SAXON HARBOR     1040   54        CALM     1015.9R
$$

LMZ867-665-643>646-041200-
LAKE MICHIGAN

STATION/POSITION TIME  TEMP    WIND        PRES    WAVE
                       AIR SEA DIR/SP/G            HT/PER
                 (UTC) (F)     (DEG/KT/KT) (MB)    (FT/S)
CHAMBERS ISLAND  1000   64     360/  8/  9 1015.9
S GREEN BAY BUOY 1000   65 66   20/ 12/ 16 1017.1S
N MID LAKE BUOY  0950   68 66   20/  8/ 10 1015.4F   1/ 3
NORTHPORT PIER   1000   66     350/  7/ 22 1015.9S
SISTER BAY       1011   66      30/  6/  9   N/A
ALGOMA LAKESHORE 1044          350/  6/  7   N/A
KEWAUNEE LAKESHO 1000   64      20/  8/ 12 1014.6R
SHEBOYGAN LAKESH 1000   62     360/ 10/ 11 1015.6R
PORT WASHINGTON  1000   66     330/  2/  4 1016.3
ATWATER BUOY     1000   61     330/  6/  6 1016.8R
MILWAUKEE LAKESH 1010   65      10/  3/  4   N/A
S MID LAKE BUOY  0950   67 71  350/ 10/ 12 1014.3R
KENOSHA   LAKESH 1000   67     350/  3/  4 1014.9S
$$

TC  - TEMPERATURE IN CELSIUS
VSB - VISIBILITY IN STATUTE MILES
WCI - WIND CHILL INDEX
HX  - HEAT INDEX




USA.gov is the U.S. government's official web portal to all federal, state and local government web resources and services.